Location: Franzen
(48.6167°N, 15.3833°E)
Time: 10:42:34
(UTC+00:00)

SL-16 R/B - Pass Details

Date: 22 April 2021
Orbit: 840 x 849 km, 71.0° (Epoch: 16 May)

Event Time Altitude Azimuth Distance (km) Brightness Sun altitude
Rises 19:31:42 0° 333° (NNW) 3,424 6.6 -14.0°
Reaches altitude 10° 19:34:12 10° 337° (NNW) 2,484 5.6 -14.3°
Maximum altitude 19:39:52 62° 58° (ENE) 949 2.4 -15.0°
Enters shadow 19:43:19 24° 133° (SE) 1,694 3.1 -15.5°
